When you browse on this site, cookies collect data to enhance your experience and personalize the content and advertising you see.
Visit our Privacy Policy to learn more. By continuing to use the site, you agree to this use of cookies and data.

Hourly Weather Kapan

Today, 7 August, Friday

Time Temperature Precipitation Wind Pressure Humidity
00:00 +22°C° 0 mm 1 mps 685 mmHg 76%
01:00 +21°C° 0 mm 1 mps 685 mmHg 77%
02:00 +21°C° 0 mm 1 mps 685 mmHg 77%
03:00 +20°C° 0 mm 1 mps 684 mmHg 78%
04:00 +20°C° 0 mm 1 mps 685 mmHg 77%
05:00 +20°C° 0 mm 1 mps 685 mmHg 75%
06:00 +18°C° 0 mm 0 mps 685 mmHg 74%
07:00 +22°C° 0 mm 1 mps 686 mmHg 67%
08:00 +23°C° 0 mm 2 mps 686 mmHg 60%
09:00 +25°C° 0 mm 2 mps 686 mmHg 53%
10:00 +26°C° 0 mm 2 mps 686 mmHg 49%
11:00 +27°C° 0 mm 3 mps 686 mmHg 45%
12:00 +28°C° 0 mm 3 mps 686 mmHg 42%
13:00 +28°C° 0 mm 3 mps 685 mmHg 40%
14:00 +28°C° 0 mm 3 mps 685 mmHg 39%
15:00 +29°C° 0 mm 3 mps 685 mmHg 38%
16:00 +28°C° 0 mm 3 mps 685 mmHg 39%
17:00 +28°C° 0 mm 3 mps 684 mmHg 41%
18:00 +27°C° 0 mm 3 mps 684 mmHg 42%
19:00 +26°C° 0 mm 2 mps 684 mmHg 46%
20:00 +24°C° 0 mm 2 mps 684 mmHg 51%
21:00 +22°C° 0 mm 1 mps 684 mmHg 55%
22:00 +22°C° 0 mm 1 mps 684 mmHg 56%
23:00 +20°C° 0 mm 2 mps 684 mmHg 56%

Tomorrow, 8 August, Saturday

Time Temperature Precipitation Wind Pressure Humidity
00:00 +20°C° 0 mm 2 mps 684 mmHg 57%
01:00 +20°C° 0 mm 2 mps 684 mmHg 57%
02:00 +20°C° 0 mm 2 mps 684 mmHg 58%
03:00 +19°C° 0 mm 2 mps 684 mmHg 58%
04:00 +20°C° 0 mm 2 mps 684 mmHg 57%
05:00 +20°C° 0 mm 2 mps 684 mmHg 57%
06:00 +20°C° 0 mm 2 mps 684 mmHg 56%
07:00 +23°C° 0 mm 2 mps 684 mmHg 50%
08:00 +25°C° 0 mm 2 mps 685 mmHg 43%
09:00 +27°C° 0 mm 2 mps 685 mmHg 37%
10:00 +28°C° 0 mm 2 mps 685 mmHg 35%
11:00 +29°C° 0 mm 3 mps 684 mmHg 32%
12:00 +30°C° 0 mm 3 mps 684 mmHg 30%
13:00 +31°C° 0 mm 3 mps 683 mmHg 29%
14:00 +31°C° 0 mm 3 mps 683 mmHg 28%
15:00 +32°C° 0 mm 4 mps 682 mmHg 27%
16:00 +31°C° 0 mm 3 mps 682 mmHg 30%
17:00 +30°C° 0 mm 3 mps 682 mmHg 32%
18:00 +29°C° 0 mm 3 mps 682 mmHg 34%
19:00 +27°C° 0 mm 2 mps 681 mmHg 39%
20:00 +25°C° 0 mm 2 mps 681 mmHg 43%
21:00 +23°C° 0 mm 1 mps 681 mmHg 47%
22:00 +23°C° 0 mm 1 mps 681 mmHg 49%
23:00 +23°C° 0 mm 2 mps 681 mmHg 50%

Day after tomorrow, 9 August, Sunday

Time Temperature Precipitation Wind Pressure Humidity
00:00 +21°C° 0 mm 2 mps 681 mmHg 51%
01:00 +21°C° 0 mm 2 mps 681 mmHg 52%
02:00 +21°C° 0 mm 2 mps 681 mmHg 52%
03:00 +20°C° 0 mm 2 mps 680 mmHg 52%
04:00 +21°C° 0 mm 2 mps 681 mmHg 52%
05:00 +21°C° 0 mm 2 mps 681 mmHg 51%
06:00 +22°C° 0 mm 1 mps 681 mmHg 51%
07:00 +24°C° 0 mm 2 mps 681 mmHg 45%
08:00 +26°C° 0 mm 2 mps 681 mmHg 39%
09:00 +29°C° 0 mm 2 mps 682 mmHg 33%
10:00 +30°C° 0 mm 2 mps 682 mmHg 31%
11:00 +31°C° 0 mm 3 mps 682 mmHg 28%
12:00 +33°C° 0 mm 3 mps 681 mmHg 25%
13:00 +33°C° 0 mm 3 mps 681 mmHg 24%
14:00 +34°C° 0 mm 3 mps 681 mmHg 24%
15:00 +34°C° 0 mm 3 mps 680 mmHg 23%
16:00 +33°C° 0 mm 3 mps 680 mmHg 25%
17:00 +31°C° 0 mm 3 mps 680 mmHg 27%
18:00 +30°C° 0 mm 3 mps 680 mmHg 29%
19:00 +28°C° 0 mm 2 mps 679 mmHg 32%
20:00 +26°C° 0 mm 2 mps 679 mmHg 35%
21:00 +24°C° 0 mm 1 mps 679 mmHg 39%
22:00 +24°C° 0 mm 2 mps 679 mmHg 40%
23:00 +24°C° 0 mm 2 mps 679 mmHg 41%

10 August, Monday

Time Temperature Precipitation Wind Pressure Humidity
00:00 +23°C° 0 mm 2 mps 680 mmHg 42%
01:00 +23°C° 0 mm 2 mps 680 mmHg 43%
02:00 +23°C° 0 mm 2 mps 680 mmHg 43%
03:00 +23°C° 0 mm 2 mps 679 mmHg 44%
04:00 +23°C° 0 mm 2 mps 680 mmHg 45%
05:00 +23°C° 0 mm 1 mps 680 mmHg 46%
06:00 +23°C° 0 mm 1 mps 680 mmHg 47%
07:00 +25°C° 0 mm 2 mps 680 mmHg 41%
08:00 +27°C° 0 mm 2 mps 681 mmHg 36%
09:00 +29°C° 0 mm 2 mps 681 mmHg 31%
10:00 +30°C° 0 mm 3 mps 681 mmHg 30%
11:00 +31°C° 0 mm 3 mps 681 mmHg 30%
12:00 +33°C° 0 mm 4 mps 681 mmHg 29%
13:00 +33°C° 0 mm 4 mps 680 mmHg 31%
14:00 +33°C° 0 mm 4 mps 680 mmHg 33%
15:00 +33°C° 0 mm 4 mps 679 mmHg 35%
16:00 +32°C° 0 mm 4 mps 679 mmHg 40%
17:00 +30°C° 0 mm 4 mps 678 mmHg 45%
18:00 +29°C° 0 mm 3 mps 678 mmHg 50%
19:00 +27°C° 0 mm 3 mps 678 mmHg 55%
20:00 +25°C° 0 mm 2 mps 679 mmHg 61%
21:00 +23°C° 0 mm 1 mps 679 mmHg 67%
22:00 +23°C° 0 mm 1 mps 679 mmHg 69%
23:00 +22°C° 0 mm 1 mps 679 mmHg 70%

11 August, Tuesday

Time Temperature Precipitation Wind Pressure Humidity
00:00 +22°C° 0 mm 1 mps 679 mmHg 72%
01:00 +21°C° 0 mm 1 mps 679 mmHg 74%
02:00 +21°C° 0 mm 1 mps 679 mmHg 76%
03:00 +20°C° 0 mm 1 mps 679 mmHg 78%
04:00 +20°C° 0 mm 1 mps 680 mmHg 77%
05:00 +21°C° 0 mm 1 mps 680 mmHg 77%
06:00 +21°C° 0 mm 1 mps 680 mmHg 77%
07:00 +22°C° 0 mm 1 mps 681 mmHg 70%
08:00 +24°C° 0 mm 2 mps 681 mmHg 63%
09:00 +26°C° 0 mm 2 mps 681 mmHg 55%
10:00 +27°C° 0 mm 3 mps 681 mmHg 52%
11:00 +28°C° 0 mm 3 mps 681 mmHg 48%
12:00 +30°C° 0 mm 4 mps 681 mmHg 44%
13:00 +30°C° 0 mm 4 mps 681 mmHg 45%
14:00 +30°C° 0 mm 4 mps 680 mmHg 45%
15:00 +30°C° 0 mm 4 mps 680 mmHg 46%
16:00 +29°C° 0 mm 4 mps 679 mmHg 48%
17:00 +29°C° 0 mm 4 mps 679 mmHg 51%
18:00 +28°C° 0 mm 3 mps 679 mmHg 53%
19:00 +26°C° 0 mm 3 mps 679 mmHg 57%
20:00 +24°C° 0 mm 2 mps 680 mmHg 60%
21:00 +22°C° 0 mm 1 mps 680 mmHg 64%
22:00 +21°C° 0 mm 2 mps 680 mmHg 65%
23:00 +21°C° 0 mm 2 mps 680 mmHg 66%

12 August, Wednesday

Time Temperature Precipitation Wind Pressure Humidity
00:00 +20°C° 0 mm 2 mps 680 mmHg 67%
01:00 +21°C° 0 mm 1 mps 680 mmHg 68%
02:00 +21°C° 0 mm 1 mps 680 mmHg 70%
03:00 +20°C° 0 mm 1 mps 680 mmHg 71%
04:00 +21°C° 0 mm 1 mps 680 mmHg 71%
05:00 +21°C° 0 mm 1 mps 681 mmHg 70%
06:00 +21°C° 0 mm 1 mps 681 mmHg 70%
07:00 +22°C° 0 mm 1 mps 681 mmHg 63%
08:00 +24°C° 0 mm 2 mps 682 mmHg 56%
09:00 +26°C° 0 mm 3 mps 682 mmHg 49%
10:00 +27°C° 0 mm 3 mps 682 mmHg 45%
11:00 +28°C° 0 mm 3 mps 682 mmHg 41%
12:00 +29°C° 0 mm 4 mps 682 mmHg 36%
13:00 +29°C° 0 mm 4 mps 681 mmHg 35%
14:00 +30°C° 0 mm 4 mps 681 mmHg 34%
15:00 +30°C° 0 mm 4 mps 681 mmHg 32%
16:00 +29°C° 0 mm 4 mps 681 mmHg 35%
17:00 +28°C° 0 mm 4 mps 681 mmHg 37%
18:00 +27°C° 0 mm 3 mps 680 mmHg 39%
19:00 +25°C° 0 mm 3 mps 681 mmHg 46%
20:00 +24°C° 0 mm 2 mps 681 mmHg 53%
21:00 +22°C° 0 mm 1 mps 681 mmHg 60%
22:00 +21°C° 0 mm 1 mps 681 mmHg 62%
23:00 +20°C° 0 mm 2 mps 681 mmHg 63%
Show more